Tracking 29892 objects as of 21-Nov-2024
HD Live streaming from Space Station
objects crossing your sky now

NOAA 16 DEB

Track NOAA 16 DEB now!
10-day predictions


NORAD ID: 41402
Int'l Code: 2000-055KF
Perigee: 828.4 km
Apogee: 875.5 km
Inclination: 98.7 °
Period: 101.8 minutes
Semi major axis: 7222 km
RCS: Unknown
Launch date: September 21, 2000
Source: United States (US)
Launch site: AIR FORCE WESTERN TEST RANGE (AFWTR)

Note: This is SATELLITE DEBRIS
Your satellite tracking list
Your tracking list is empty




NASA's NSSDC Master Catalog

Two Line Element Set (TLE):
1 41402U 00055KF  24322.56050277  .00003793  00000-0  19982-2 0  9999
2 41402  98.7236 353.0970 0032614 101.7483 258.7352 14.14270257450717
Source of the keplerian elements: AFSPC